Location: Newark
(50.2306°N, 14.0814°E)
Time: 02:48:03
(UTC+00:00)

N. Korean satellite - Pass Details

Date: 06 December 2019
Orbit: 454 x 507 km, 97.2° (Epoch: 23 January)

Event Time Altitude Azimuth Distance (km) Brightness Sun altitude
Rises 17:21:09 0° 217° (SW) 2,605 11.0 -21.2°
Reaches altitude 10° 17:24:35 10° 252° (WSW) 1,727 10.5 -21.8°
Maximum altitude 17:25:53 12° 272° (W) 1,635 10.3 -22.0°
Drops below altitude 10° 17:27:11 10° 293° (WNW) 1,730 10.1 -22.2°
Sets 17:30:38 0° 328° (NNW) 2,616 10.6 -22.7°
